This is the latest recevied weather packets stored in our database for station/object KB7STN. If no packets are shown the sender has not sent any weather packets the latest 1 day(s).
| Time | Temp. | Humidity | Pressure | Rain* | Wind** | Luminosity | Snow |
|---|---|---|---|---|---|---|---|
| 1778086635 | 11.11° C | 25% | 1013.3 hPa | 0 mm | - | - | - |
| 1778086335 | 10.56° C | 28% | 1013.3 hPa | 0 mm | - | - | - |
| 1778086035 | 10.56° C | 26% | 1013.2 hPa | 0 mm | - | - | - |
| 1778085735 | 10.56° C | 27% | 1013.1 hPa | 0 mm | - | - | - |
| 1778085435 | 10.56° C | 26% | 1013 hPa | 0 mm | - | - | - |
| 1778085135 | 10.56° C | 28% | 1012.9 hPa | 0 mm | - | - | - |
| 1778084835 | 10.56° C | 26% | 1012.9 hPa | 0 mm | - | - | - |
| 1778084535 | 11.11° C | 27% | 1012.6 hPa | 0 mm | - | - | - |
| 1778084235 | 10.56° C | 29% | 1012.6 hPa | 0 mm | - | - | - |
| 1778083935 | 10.56° C | 29% | 1012.5 hPa | 0 mm | - | - | - |
| 1778083635 | 10.56° C | 31% | 1012.3 hPa | 0 mm | - | - | - |
| 1778083335 | 10.56° C | 35% | 1012.3 hPa | 0 mm | - | - | - |
| 1778083035 | 10° C | 35% | 1012.3 hPa | 0 mm | - | - | - |
| 1778082735 | 10° C | 36% | 1012.3 hPa | 0 mm | - | - | - |
| 1778082435 | 10° C | 36% | 1012.1 hPa | 0 mm | - | - | - |
| 1778081535 | 10° C | 38% | 1011.9 hPa | 0 mm | - | - | - |
| 1778081235 | 10° C | 37% | 1011.9 hPa | 0 mm | - | - | - |
| 1778080935 | 10° C | 40% | 1011.8 hPa | 0 mm | - | - | - |
| 1778080335 | 10° C | 40% | 1011.6 hPa | 0 mm | - | - | - |
| 1778080035 | 10° C | 42% | 1011.6 hPa | 0 mm | - | - | - |
| 1778079735 | 10° C | 46% | 1011.6 hPa | 0 mm | - | - | - |
| 1778079435 | 10° C | 47% | 1011.5 hPa | 0 mm | - | - | - |
| 1778079135 | 10° C | 47% | 1011.4 hPa | 0 mm | - | - | - |
| 1778078835 | 10° C | 47% | 1011.3 hPa | 0 mm | - | - | - |
| 1778078535 | 10° C | 47% | 1011.3 hPa | 0 mm | - | - | - |
* Rain latest hour (hover to see other rain measurements)
** Current wind speed in m/s (hover to see current wind gust speed)